Temp
14 11 10 10 11 13 13 13 13 12 14 15 13 14 14 10 8 8 8 8 7 7 7 7 8 9 10 11 12 11 10 11 10 10 11 12 12 13 11 10 9 9 9 9
11 10 12 12 12 12 12 12 11 12 14 14 14 13 12 9 8 7 8 7 7 7 7 7 8 9 10 9 10 10 10 9 8 8 8 8 8 9 8 8 8 8 8 8
10 12 12 12 12 12 11 11 12 14 14 14 14 12 13 7 7 7 7 7 7 6 6 6 6 6 7 9 9 9 9 8 7 7 7 8 9 9 8 8 7 6 5 5
10 13 12 12 12 12 11 12 14 13 12 11 12 9 10 7 6 6 6 6 6 6 5 5 5 6 6 7 7 8 8 7 6 6 6 6 6 5 5 5 6 5 4 3
11 12 11 11 12 12 12 12 12 13 10 10 11 10 9 7 6 5 5 6 6 5 5 4 4 5 5 6 7 8 7 6 5 5 5 5 6 5 4 3 5 4 3 3
12 14 13 12 13 12 12 12 10 8 9 9 10 11 9 6 7 6 5 5 5 5 4 4 4 5 5 6 6 6 5 5 5 5 6 6 5 4 3 3 4 4 4 3
12 12 13 14 13 12 12 11 10 10 9 10 10 10 14 8 8 7 5 5 5 4 4 3 3 3 4 4 5 4 5 5 5 6 6 5 3 2 2 2 3 4 4 4
10 10 12 12 13 11 10 11 8 10 9 9 10 9 9 6 6 6 6 5 4 4 3 3 2 2 2 3 2 3 5 5 6 5 5 4 2 2 2 2 3 2 2 1
9 10 13 13 12 13 10 10 11 9 9 8 9 8 7 6 5 4 4 4 4 3 2 2 1 1 1 1 1 2 4 5 5 4 3 2 2 2 1 2 2 3 4 4
11 10 12 13 13 12 11 10 9 7 9 9 9 8 8 5 5 4 3 4 3 3 2 1 1 0 -0 1 1 2 3 4 3 3 1 1 2 1 0 0 1 2 2 2
12 10 11 12 10 10 9 8 9 9 8 9 8 8 8 7 6 4 3 4 3 3 2 1 0 -0 -0 -0 1 2 3 4 3 2 2 1 1 -1 -0 -0 0 0 1 0
10 8 9 10 11 11 11 10 9 6 8 8 8 10 5 6 5 4 4 4 3 2 1 0 -0 -0 -1 -1 1 1 2 2 1 1 1 0 -1 -1 -0 -0 -0 0 0 0
9 7 6 9 9 9 10 10 10 8 8 8 8 9 5 5 4 4 4 3 3 2 1 0 -0 -1 -2 -1 -0 0 0 1 1 0 0 -2 -2 -1 -1 -0 -0 -0 -1 0
8 6 8 8 9 8 8 10 10 6 5 9 9 8 4 5 4 4 3 3 2 2 1 -0 -1 -1 -2 -2 -1 -1 0 0 -0 -1 -1 -2 -2 -2 -2 -1 -0 -1 -1 -1
6 5 6 9 10 9 8 9 8 5 8 6 7 8 10 5 4 4 4 3 2 1 -0 -1 -1 -2 -3 -2 -1 -1 -0 -1 -1 -2 -2 -2 -1 -2 -2 -2 -0 -0 -1 -1
5 4 5 7 8 8 9 8 7 7 8 8 8 8 7 6 4 3 3 2 1 0 -1 -2 -2 -2 -2 -2 -2 -2 -1 -2 -2 -3 -3 -3 -2 -2 -3 -2 -2 -1 -1 -1
4 4 4 6 8 6 5 6 6 6 8 8 7 8 4 4 3 2 2 2 1 -1 -2 -2 -3 -3 -3 -3 -3 -3 -3 -3 -3 -4 -5 -4 -4 -4 -4 -3 -3 -2 -2 -2
3 3 4 5 4 5 7 8 8 7 7 8 7 5 5 5 3 2 2 1 -0 -1 -2 -3 -3 -3 -3 -3 -3 -4 -5 -4 -4 -5 -6 -6 -6 -6 -5 -4 -3 -3 -3 -3
5 4 3 4 5 5 6 8 7 7 6 7 6 4 3 0 1 -0 1 0 -1 -2 -3 -3 -4 -4 -4 -4 -5 -5 -5 -5 -5 -6 -6 -7 -7 -8 -6 -5 -4 -4 -4 -3
5 5 5 3 4 3 5 7 9 9 6 5 4 2 1 2 0 -1 -1 -1 -2 -3 -4 -5 -5 -5 -5 -5 -6 -6 -5 -5 -6 -7 -7 -7 -7 -8 -7 -7 -6 -6 -5 -5
3 3 4 3 3 3 5 6 9 6 5 4 4 2 1 -1 -0 -1 -2 -3 -4 -4 -5 -5 -5 -5 -5 -6 -6 -6 -6 -6 -7 -7 -7 -7 -7 -8 -8 -7 -6 -7 -6 -5
3 3 3 3 4 4 6 7 6 4 2 2 2 1 0 -1 -2 -2 -3 -4 -4 -4 -4 -4 -5 -6 -6 -7 -7 -7 -7 -7 -7 -7 -8 -7 -7 -8 -8 -8 -7 -7 -7 -7
3 2 3 3 2 4 5 5 4 4 2 1 1 0 0 -2 -2 -3 -4 -4 -5 -5 -5 -6 -6 -6 -7 -8 -8 -7 -8 -8 -8 -8 -8 -8 -7 -8 -8 -8 -8 -8 -9 -9
4 3 1 3 3 2 2 2 2 2 1 1 1 0 -0 -2 -3 -4 -5 -5 -5 -6 -6 -7 -7 -8 -8 -8 -8 -8 -8 -8 -8 -8 -8 -8 -8 -8 -8 -9 -9 -9 -10 -10
1 3 2 2 2 2 1 1 1 1 1 0 -1 -1 -1 -2 -4 -4 -5 -6 -6 -7 -8 -8 -9 -9 -9 -9 -9 -9 -9 -9 -8 -8 -8 -9 -9 -9 -9 -9 -10 -10 -10 -10
2 1 3 1 2 2 1 0 1 0 -2 -1 -1 -2 -3 -2 -4 -5 -6 -7 -7 -8 -9 -9 -9 -9 -10 -10 -9 -9 -9 -9 -9 -9 -9 -9 -9 -9 -10 -9 -9 -10 -10 -10
Height
1514 1518 1518 1512 1510 1509 1511 1515 1516 1511 1502 1502 1503 1500 1497 1500 1503 1508 1510 1511 1513 1514 1514 1512 1510 1508 1505 1502 1500 1498 1496 1493 1488 1482 1476 1473 1470 1465 1462 1458 1453 1450 1448 1447
1514 1518 1508 1508 1509 1510 1511 1517 1515 1508 1500 1501 1500 1500 1501 1503 1504 1505 1508 1511 1512 1513 1512 1510 1509 1505 1502 1500 1497 1496 1491 1488 1484 1478 1474 1468 1460 1455 1454 1448 1447 1445 1442 1439
1507 1502 1500 1507 1509 1511 1510 1512 1510 1506 1501 1500 1501 1507 1498 1507 1505 1509 1511 1512 1512 1512 1512 1510 1507 1503 1500 1496 1494 1493 1489 1485 1482 1477 1472 1465 1459 1453 1447 1443 1439 1436 1434 1430
1501 1493 1495 1502 1508 1509 1512 1501 1500 1503 1509 1517 1505 1521 1501 1504 1507 1509 1510 1511 1511 1511 1509 1506 1504 1501 1499 1496 1494 1492 1487 1482 1478 1474 1468 1459 1450 1444 1441 1437 1434 1429 1426 1422
1493 1490 1494 1496 1495 1501 1503 1498 1500 1501 1512 1513 1510 1517 1496 1501 1508 1508 1508 1509 1510 1509 1506 1503 1503 1501 1498 1493 1491 1488 1485 1480 1475 1471 1465 1456 1448 1443 1438 1433 1428 1423 1419 1416
1486 1484 1485 1486 1485 1489 1496 1502 1507 1512 1515 1517 1508 1506 1485 1498 1488 1497 1502 1505 1507 1507 1505 1502 1500 1498 1496 1492 1489 1486 1483 1478 1473 1467 1462 1453 1445 1440 1433 1429 1424 1417 1410 1405
1486 1482 1481 1482 1487 1488 1493 1503 1519 1519 1521 1508 1496 1501 1467 1483 1482 1487 1497 1503 1504 1504 1504 1502 1500 1497 1494 1490 1486 1484 1480 1474 1468 1463 1457 1452 1446 1440 1433 1426 1420 1412 1403 1399
1488 1488 1479 1473 1474 1485 1492 1494 1513 1513 1515 1505 1495 1497 1481 1486 1485 1488 1494 1500 1503 1502 1502 1502 1499 1495 1493 1489 1486 1482 1476 1470 1463 1459 1454 1449 1444 1438 1431 1424 1417 1410 1401 1393
1485 1479 1465 1464 1467 1471 1487 1490 1486 1502 1504 1511 1496 1491 1490 1490 1492 1492 1495 1498 1502 1503 1501 1499 1498 1495 1492 1490 1484 1479 1471 1466 1460 1455 1450 1446 1440 1434 1428 1421 1415 1407 1398 1389
1470 1480 1465 1463 1465 1468 1469 1477 1496 1500 1501 1501 1487 1488 1482 1490 1490 1492 1495 1496 1498 1498 1499 1500 1496 1495 1492 1488 1483 1475 1468 1462 1457 1454 1449 1443 1435 1430 1424 1418 1409 1402 1393 1385
1463 1474 1469 1466 1468 1469 1474 1479 1479 1481 1487 1489 1494 1482 1474 1478 1482 1486 1491 1494 1497 1498 1496 1495 1495 1493 1489 1486 1480 1472 1464 1459 1457 1452 1446 1439 1433 1427 1421 1414 1406 1398 1389 1381
1466 1476 1473 1468 1461 1459 1458 1465 1470 1492 1483 1483 1484 1471 1477 1477 1483 1486 1490 1492 1495 1496 1496 1495 1492 1487 1486 1482 1476 1468 1464 1458 1455 1449 1443 1437 1432 1424 1416 1409 1402 1394 1385 1377
1456 1472 1483 1472 1470 1464 1462 1465 1465 1472 1477 1475 1482 1468 1479 1483 1485 1487 1488 1490 1493 1494 1494 1490 1488 1485 1482 1477 1474 1469 1463 1457 1452 1447 1441 1434 1428 1420 1413 1406 1398 1390 1381 1372
1460 1462 1460 1457 1455 1458 1463 1460 1463 1477 1489 1473 1469 1470 1481 1484 1483 1484 1486 1488 1490 1490 1489 1486 1485 1483 1481 1477 1472 1468 1460 1455 1449 1444 1438 1432 1424 1418 1410 1403 1395 1387 1379 1369
1463 1470 1466 1450 1444 1450 1456 1460 1465 1479 1468 1482 1472 1472 1463 1472 1473 1477 1480 1486 1488 1487 1488 1487 1484 1483 1479 1474 1468 1464 1458 1454 1447 1443 1436 1429 1423 1418 1410 1401 1392 1385 1376 1368
1460 1470 1470 1460 1452 1452 1453 1458 1460 1464 1458 1463 1459 1454 1458 1460 1470 1474 1475 1480 1484 1487 1488 1485 1482 1479 1474 1470 1466 1462 1457 1453 1447 1442 1435 1427 1422 1415 1408 1399 1390 1381 1373 1365
1465 1463 1464 1457 1453 1462 1467 1451 1457 1455 1453 1452 1453 1445 1454 1463 1466 1470 1474 1476 1482 1486 1483 1483 1481 1477 1473 1469 1464 1461 1457 1453 1448 1441 1434 1426 1421 1414 1407 1397 1388 1379 1370 1363
1459 1462 1457 1455 1462 1456 1440 1439 1440 1444 1442 1443 1442 1442 1444 1451 1460 1466 1472 1477 1481 1482 1481 1481 1479 1475 1471 1467 1465 1462 1457 1452 1446 1440 1433 1427 1421 1413 1405 1396 1387 1378 1370 1362
1449 1455 1456 1455 1455 1448 1436 1432 1436 1439 1435 1435 1438 1443 1448 1457 1464 1470 1474 1478 1480 1482 1481 1479 1477 1474 1471 1466 1465 1463 1456 1450 1444 1439 1434 1428 1421 1413 1405 1396 1388 1379 1370 1363
1442 1442 1447 1458 1456 1460 1440 1431 1429 1429 1435 1433 1436 1441 1447 1454 1467 1471 1473 1476 1480 1482 1480 1478 1476 1473 1469 1466 1464 1460 1453 1448 1444 1439 1434 1429 1421 1415 1407 1399 1390 1382 1373 1365
1445 1449 1447 1453 1453 1447 1431 1428 1428 1439 1442 1433 1437 1444 1447 1456 1461 1466 1471 1474 1479 1481 1478 1476 1473 1470 1467 1463 1463 1457 1452 1449 1444 1440 1435 1430 1423 1416 1409 1401 1393 1384 1375 1367
1439 1445 1446 1449 1448 1445 1427 1428 1433 1433 1435 1437 1439 1446 1452 1460 1465 1467 1471 1474 1477 1478 1475 1472 1470 1467 1464 1464 1461 1456 1452 1448 1444 1440 1435 1430 1423 1417 1410 1402 1394 1387 1377 1369
1436 1431 1435 1437 1438 1428 1426 1426 1427 1429 1432 1441 1443 1452 1456 1462 1466 1471 1471 1473 1474 1474 1473 1472 1468 1466 1466 1465 1459 1455 1452 1448 1444 1440 1435 1429 1423 1418 1411 1404 1396 1388 1381 1372
1423 1423 1429 1429 1430 1429 1428 1431 1432 1435 1438 1444 1448 1454 1460 1464 1470 1470 1472 1473 1474 1473 1473 1471 1467 1468 1467 1462 1459 1457 1453 1449 1444 1439 1434 1429 1424 1419 1413 1406 1400 1393 1385 1378
1419 1418 1424 1431 1433 1433 1436 1435 1436 1438 1444 1450 1455 1458 1460 1465 1470 1471 1470 1472 1472 1473 1472 1470 1470 1468 1466 1464 1461 1458 1453 1449 1443 1439 1435 1431 1426 1421 1415 1410 1403 1398 1392 1386
1410 1413 1416 1421 1426 1426 1437 1438 1440 1441 1448 1454 1455 1458 1462 1466 1468 1469 1471 1473 1474 1474 1473 1471 1469 1468 1467 1465 1462 1459 1454 1449 1445 1441 1437 1432 1428 1422 1417 1412 1408 1403 1397 1391
Wind_Speed
2 0 7 10 7 3 1 3 4 5 6 4 8 5 4 10 22 23 23 19 15 11 9 8 9 12 15 19 23 26 28 30 33 34 36 35 37 39 41 39 38 36 36 34
1 8 11 6 4 5 5 6 8 7 5 4 3 9 5 4 7 21 25 19 13 10 7 8 10 14 18 21 23 26 29 31 33 35 36 39 42 43 41 39 37 34 33 33
10 10 7 3 6 7 6 6 5 6 2 2 2 6 6 3 13 17 15 13 9 7 7 9 12 16 19 23 26 27 28 30 31 34 35 37 38 40 42 43 46 40 37 37
7 14 14 14 8 6 9 7 7 5 4 4 2 5 6 6 7 7 13 12 9 7 7 9 13 18 22 23 24 25 27 28 30 32 35 38 40 43 45 47 48 44 41 42
9 5 7 13 13 7 8 6 6 3 4 3 3 2 4 8 6 7 10 9 7 6 7 9 13 18 21 23 26 27 26 26 26 29 33 37 40 41 41 46 48 47 46 45
7 5 6 8 2 8 6 4 6 4 2 5 7 6 5 7 9 11 11 11 8 5 6 9 12 16 19 22 24 26 27 26 26 29 32 35 37 39 41 43 48 49 49 48
4 15 4 4 2 4 4 6 1 3 1 7 6 8 15 1 10 14 14 13 8 5 6 9 14 18 21 23 25 26 27 27 28 30 31 33 34 35 38 40 43 48 49 49
10 7 14 8 19 7 8 9 6 6 4 4 3 7 5 3 11 19 19 13 8 5 5 9 14 18 20 22 24 26 27 29 30 31 30 31 32 34 34 36 38 42 43 47
6 7 4 6 5 16 7 9 6 5 1 1 4 2 1 3 6 12 14 10 7 3 4 8 13 17 19 20 23 25 27 29 31 32 32 32 32 33 34 34 36 37 40 46
5 5 2 1 6 4 8 9 3 1 5 7 5 5 4 10 10 7 8 9 7 3 3 7 13 15 17 21 23 25 27 30 31 31 31 32 33 34 34 34 36 37 37 40
14 3 2 3 4 9 3 3 2 4 5 4 2 5 4 15 13 12 11 10 8 3 2 5 9 14 17 20 25 27 28 30 31 32 33 32 33 35 36 33 35 37 35 38
6 1 13 6 3 3 1 6 6 4 5 4 3 8 5 9 11 16 13 10 7 4 2 5 11 15 18 22 26 29 28 30 31 32 34 32 32 36 36 36 36 35 36 34
7 5 7 3 4 4 2 3 2 4 2 5 4 4 3 7 8 13 13 11 8 5 1 6 13 16 19 24 27 28 28 30 30 32 33 35 32 36 37 36 36 36 36 33
6 4 11 15 3 4 5 5 4 5 2 6 10 4 6 9 9 11 11 10 6 2 4 8 12 15 17 22 26 28 29 30 31 31 32 34 34 35 37 36 35 36 35 34
4 4 6 3 6 6 6 5 6 7 14 8 22 16 14 17 16 19 15 11 7 4 1 5 10 12 17 23 28 29 29 29 29 30 30 32 33 33 36 36 34 34 34 33
4 5 3 7 3 6 6 8 9 11 14 13 19 25 3 19 16 19 19 15 9 6 3 4 8 14 20 25 27 28 28 27 27 28 29 30 31 32 37 37 35 34 34 34
3 4 5 7 6 2 4 21 13 9 10 15 17 8 7 6 13 18 18 12 10 7 2 5 10 15 19 23 26 25 25 24 24 26 27 30 31 31 36 37 36 35 34 33
6 4 3 2 3 7 7 6 16 21 23 19 7 6 17 15 17 19 14 11 10 6 2 4 10 15 20 22 22 21 20 21 22 25 26 28 29 30 34 36 35 34 33 32
11 6 3 3 6 6 7 3 6 8 9 12 7 10 18 24 21 12 10 10 10 6 2 5 10 15 17 19 19 19 19 21 22 24 25 28 29 29 32 35 35 33 32 31
8 5 6 3 4 6 4 5 5 5 8 4 11 15 21 23 6 4 14 14 10 5 3 6 11 15 17 17 17 18 19 21 22 24 24 25 27 27 29 32 33 32 30 30
3 2 9 4 4 6 6 8 1 6 5 7 19 21 24 5 5 23 23 15 9 4 4 8 13 16 16 16 15 16 18 19 20 21 22 23 24 26 27 30 30 32 31 30
7 7 4 2 4 8 2 0 6 6 12 19 25 23 22 24 27 25 18 13 6 3 8 12 13 14 14 13 14 15 17 18 20 19 21 22 23 25 26 30 29 31 34 35
4 6 6 7 5 3 3 2 10 16 26 18 27 26 28 27 23 18 14 7 3 7 10 10 11 12 11 11 14 15 17 18 20 19 21 23 23 23 26 29 28 32 35 37
3 4 3 5 2 4 18 20 23 25 27 26 25 25 22 24 19 16 11 6 5 6 7 9 10 10 11 12 13 14 16 18 19 20 21 22 23 24 25 29 27 29 31 34
5 7 6 4 8 16 12 23 30 29 24 22 22 20 20 19 15 11 9 6 6 6 8 9 10 11 12 12 12 14 16 19 21 20 20 21 22 22 24 25 28 26 25 24
5 6 6 5 17 12 17 27 23 25 26 24 24 21 16 10 11 8 9 8 7 7 8 9 10 11 12 12 12 13 16 20 21 21 21 21 22 22 23 24 24 24 22 22
Wind_Direction
299 25 225 219 208 164 34 244 256 266 274 207 226 225 201 123 135 140 153 151 142 117 86 55 28 14 5 358 355 351 345 339 337 339 335 330 327 325 325 324 319 315 310 304
42 258 255 212 225 232 238 266 270 277 261 203 218 251 101 183 151 156 158 153 148 129 92 46 24 12 7 3 357 352 346 342 344 343 340 337 336 333 332 329 324 321 316 311
193 215 38 198 257 253 229 213 243 210 307 4 112 301 250 52 119 146 153 145 130 103 70 43 25 14 7 3 360 354 348 344 346 341 337 335 332 331 333 333 325 326 323 318
231 230 234 259 252 210 255 215 223 165 113 215 97 263 271 161 142 148 154 152 138 108 65 39 21 12 8 6 0 355 349 348 345 343 340 339 339 337 334 332 325 326 325 323
227 206 193 225 235 177 240 185 173 137 134 113 265 292 236 134 174 186 179 161 136 94 59 43 20 12 5 3 358 354 352 350 344 342 342 341 339 334 331 331 326 327 324 322
218 225 160 198 160 195 131 83 47 47 95 257 188 189 215 191 188 173 174 168 145 100 49 31 14 4 3 1 357 354 355 350 344 341 341 340 338 332 332 334 328 326 322 323
216 243 248 191 132 59 127 123 269 292 231 240 218 204 256 299 176 169 163 162 140 102 39 20 9 2 2 1 358 357 354 351 346 340 338 339 337 332 333 335 329 325 323 321
206 269 206 197 209 168 189 165 171 210 213 265 132 229 275 76 104 129 146 142 136 106 50 18 8 2 360 359 357 357 354 350 346 342 338 337 338 333 330 332 327 323 321 321
186 256 236 209 174 168 194 205 172 115 273 62 233 282 278 123 102 126 140 143 137 86 49 18 4 360 360 356 356 356 355 351 348 343 340 338 338 337 335 330 328 322 321 315
224 274 240 220 115 38 173 153 95 331 194 236 252 258 245 184 175 160 158 159 143 84 54 8 3 356 359 357 354 356 356 353 349 344 341 339 340 341 338 335 335 329 322 317
220 201 234 113 224 167 146 175 129 144 160 191 256 253 336 192 181 165 166 165 158 142 84 12 3 355 356 355 357 358 356 352 347 343 340 341 342 343 341 338 338 335 329 329
200 160 248 212 260 227 174 179 153 150 196 222 158 265 344 151 149 157 163 162 157 147 87 7 1 357 355 357 357 359 355 352 347 343 340 342 343 344 343 342 340 339 337 333
196 206 229 240 314 340 153 170 185 105 60 206 176 248 89 116 134 168 164 165 166 159 353 2 356 356 355 357 356 356 354 350 346 345 343 342 344 346 345 343 338 342 340 340
6 177 205 225 203 137 163 164 142 104 159 267 254 274 183 196 181 182 178 173 167 166 351 357 351 351 352 353 355 353 352 349 345 345 344 342 344 347 345 342 339 340 343 345
75 347 317 266 168 155 161 210 180 185 243 233 263 263 255 198 194 184 177 173 160 155 253 354 349 344 348 350 351 351 349 346 343 342 341 344 343 345 347 343 341 339 345 345
199 212 319 301 211 204 208 228 209 225 206 239 244 249 200 195 166 165 168 165 162 165 174 358 344 345 350 350 348 347 345 343 340 339 343 344 344 346 348 347 345 342 345 349
216 194 178 235 215 215 276 237 238 245 233 220 231 220 136 162 171 162 158 158 168 174 96 355 351 350 350 349 347 344 342 340 338 342 348 346 345 348 348 349 348 347 348 349
171 232 172 163 75 241 234 185 213 224 236 230 238 157 181 179 156 152 152 165 168 157 99 1 351 346 346 346 344 342 342 343 344 348 352 348 347 348 351 351 352 350 352 353
208 193 186 181 202 309 297 240 173 186 264 226 195 124 121 117 108 103 150 172 155 142 102 7 349 344 343 345 345 342 346 350 355 355 356 351 350 349 354 354 354 355 357 357
183 205 192 138 215 225 244 280 306 145 261 187 151 152 145 138 156 166 154 157 142 132 65 4 349 344 343 348 347 348 353 356 358 358 359 353 353 353 356 356 357 360 1 3
117 128 206 177 219 280 245 271 161 184 239 135 153 154 145 111 142 145 154 143 145 117 34 360 344 344 348 349 347 354 356 360 0 358 358 355 357 358 357 357 1 5 4 5
172 156 179 167 200 257 242 143 178 160 95 120 127 137 122 125 134 141 143 138 131 32 355 347 349 355 357 352 355 360 359 359 -0 358 357 357 0 2 359 359 3 8 9 10
201 179 173 185 210 274 280 192 132 142 130 127 131 139 144 139 141 144 133 122 65 4 357 2 6 8 5 5 5 3 2 1 358 0 358 0 4 5 4 5 9 8 12 10
209 168 130 123 200 116 116 112 127 137 133 133 133 141 148 145 148 134 128 101 40 24 22 22 24 27 25 20 13 8 3 4 4 3 1 4 6 7 13 13 12 10 12 9
201 149 125 76 103 91 98 121 129 121 122 133 138 140 138 140 138 136 112 83 61 50 42 37 37 36 31 27 22 15 10 8 11 8 6 7 7 11 12 21 17 13 15 11
192 173 170 189 172 125 137 133 134 135 146 147 140 131 124 138 132 124 108 88 74 66 54 44 42 38 32 29 25 20 14 11 10 11 10 9 9 11 13 12 17 29 22 19